Location: Newark
(51.3318°N, 0.0053°E)
Time: 19:46:30
(UTC+00:00)

LO-87 - Pass Details

Date: 28 June 2022
Orbit: 451 x 466 km, 97.4° (Epoch: 11 August)

Event Time Altitude Azimuth Distance (km) Brightness Sun altitude
Exits shadow 21:50:02 - 99° (E) 2,104 ? -9.9°
Reaches altitude 10° 21:52:53 10° 60° (ENE) 1,620 ? -10.1°
Maximum altitude 21:53:05 10° 57° (ENE) 1,618 ? -10.1°
Drops below altitude 10° 21:53:18 10° 54° (NE) 1,622 ? -10.1°
Sets 21:57:24 0° 6° (N) 2,513 ? -10.4°
